Location: Mercogliano
(40.9167°N, 14.7333°E)
Time: 08:17:46
(UTC+00:00)

CZ-2C R/B - Pass Details

Date: 16 January 2021
Orbit: 785 x 870 km, 98.2° (Epoch: 08 March)

Event Time Altitude Azimuth Distance (km) Brightness Sun altitude
Rises 04:55:59 0° 150° (SSE) 3,263 6.4 -16.2°
Reaches altitude 10° 04:58:20 10° 145° (SE) 2,342 5.7 -15.8°
Maximum altitude 05:03:18 50° 71° (ENE) 1,004 3.5 -14.9°
Drops below altitude 10° 05:08:22 10° 358° (N) 2,389 4.9 -14.0°
Sets 05:10:47 0° 353° (N) 3,336 5.6 -13.5°
